Orbital Elements at Epoch 2459200.5 (2020-Dec-17.0) TDB
Reference: JPL 22 (heliocentric ecliptic J2000)
Element | Value | Uncertainty (1-sigma) | Units |
e | .2299723011569377 | 3.8634e-08 | |
a | 2.60865507593218 | 1.7876e-08 | au |
q | 2.008736665195331 | 1.0743e-07 | au |
i | 14.14324505696376 | 4.4962e-06 | deg |
node | 169.2318778203711 | 2.1376e-05 | deg |
peri | 137.9647052054015 | 2.6127e-05 | deg |
M | 342.4658701398724 | 1.7875e-05 | deg |
tp | 2459275.455780988224 (2021-Mar-01.95578099) | 7.6955e-05 | TDB |
period | 1538.946122277901 4.21 | 1.5819e-05 4.331e-08 | d yr |
n | .2339263180098463 | 2.4045e-09 | deg/d |
Q | 3.20857348666903 | 2.1987e-08 | au |
|
| | Orbit Determination Parameters
Additional Information
|